EHI
0 0 0 0 0 0 0 0 0 0 0 0 0 0 0 0 0 0 1 1 1 0 0 0 0 0 0 0 0 0 0 0 0 0 0 0 0 0
0 0 1 1 0 0 0 0 0 0 0 0 0 0 0 0 0 0 0 0 0 0 0 0 0 0 0 0 0 0 0 0 0 0 0 0 0 0
1 1 2 2 1 0 0 0 0 0 0 0 0 0 0 0 0 0 0 0 0 0 0 0 0 0 0 0 0 0 0 0 0 0 0 0 0 0
3 3 3 3 1 1 0 0 0 0 0 0 0 0 0 0 0 0 0 0 0 0 0 0 0 0 0 0 0 0 0 0 0 0 0 0 0 0
5 5 4 3 3 2 1 0 0 0 0 0 0 0 0 0 0 0 0 0 0 0 0 0 0 0 0 0 0 0 0 0 0 0 0 0 0 0
5 4 3 3 3 3 2 1 1 1 0 0 0 0 0 0 0 0 0 0 0 0 0 0 0 0 0 0 0 0 0 0 0 0 0 0 0 0
4 3 3 3 3 3 2 2 2 2 1 0 0 0 0 0 0 0 0 0 0 0 0 0 0 0 0 0 0 0 0 0 0 0 0 0 0 0
3 3 3 3 3 3 2 1 1 1 1 0 0 0 0 0 0 0 0 0 0 0 0 0 0 0 0 0 0 0 0 0 0 0 0 0 0 0
3 3 3 3 3 3 2 1 0 0 0 0 0 0 0 0 0 0 0 0 0 0 0 0 0 0 0 0 0 0 0 0 0 0 0 0 0 0
3 3 3 2 2 2 2 1 0 0 0 0 0 0 0 0 0 0 0 0 0 0 0 0 0 0 0 0 0 0 0 0 0 0 0 0 0 0
2 2 2 1 0 1 1 0 0 0 0 0 0 0 0 0 0 0 0 0 0 0 0 0 0 0 0 0 0 0 0 0 0 0 0 0 0 0
1 0 0 0 0 0 0 0 0 0 0 0 0 0 0 0 0 0 0 0 0 0 0 0 0 0 0 0 0 0 0 0 0 0 0 0 0 0
0 0 0 0 0 0 0 0 0 0 0 0 0 0 0 0 0 0 0 0 0 0 0 0 0 0 0 0 0 0 0 0 0 0 0 0 0 0
0 0 0 0 0 0 0 0 0 0 0 0 0 0 0 0 0 0 0 0 0 0 0 0 0 0 0 0 0 0 0 0 0 0 0 0 0 0
0 0 0 0 0 0 0 0 0 0 0 0 0 0 0 0 0 0 0 0 0 0 0 0 0 0 0 0 0 0 0 0 0 0 0 0 0 0
0 0 0 0 0 0 0 0 0 0 0 0 0 0 0 0 0 0 0 0 0 0 0 0 0 0 0 0 0 0 0 0 0 0 0 0 0 0
0 0 0 0 0 0 0 0 0 0 0 0 0 0 0 0 0 0 0 0 0 0 0 0 0 0 0 0 0 0 0 0 0 0 0 0 0 0
0 0 0 0 0 0 0 0 0 0 0 0 0 0 0 0 0 0 0 0 0 0 0 0 0 0 0 0 0 0 0 0 0 0 0 0 0 0
0 0 0 0 0 0 0 0 0 0 0 0 0 0 0 0 0 0 0 0 0 0 0 0 0 0 0 0 0 0 0 0 0 0 0 0 0 0
0 0 0 0 0 0 0 0 0 0 0 0 0 0 0 0 0 0 0 0 0 0 0 0 0 0 0 0 0 0 0 0 0 0 0 0 0 0
0 0 0 0 0 0 0 0 0 0 0 0 0 0 0 0 0 0 0 0 0 0 0 0 0 0 0 0 0 0 0 0 0 0 0 0 0 0
0 0 0 0 0 0 0 0 0 0 0 0 0 0 0 0 0 0 0 0 0 0 0 0 0 0 0 0 0 0 0 0 0 0 0 0 0 0
0 0 0 0 0 0 0 0 0 0 0 0 0 0 0 0 0 0 0 0 0 0 0 0 0 0 0 0 0 0 0 0 0 0 0 0 0 0
Wind_Speed
1 1 1 0 1 1 2 3 4 3 1 0 1 2 2 2 4 3 3 8 8 7 7 7 8 8 8 8 8 8 8 8 8 8 8 8 8 8
2 2 1 1 1 1 2 2 2 4 3 1 1 1 2 3 6 4 4 9 9 8 7 7 8 8 8 8 8 8 9 9 9 9 9 9 8 9
2 2 2 2 2 2 2 3 3 3 4 1 1 2 3 3 3 3 4 3 4 8 8 8 8 8 8 8 8 9 8 8 9 9 9 9 8 9
2 3 3 3 3 2 3 3 2 3 5 5 2 2 2 2 2 3 3 3 3 7 8 7 7 7 7 7 7 7 7 7 7 7 8 8 8 8
3 3 3 4 3 2 3 3 2 3 3 5 3 1 2 2 2 2 3 2 2 4 5 6 6 6 6 6 6 6 6 7 7 7 6 6 6 6
3 3 3 4 3 3 3 3 4 4 4 4 3 2 1 1 2 2 1 1 1 2 3 3 4 5 4 5 4 5 5 5 5 5 5 5 5 5
4 4 4 5 5 4 4 4 5 4 4 4 3 2 1 1 1 1 1 1 1 1 1 1 2 1 1 1 2 3 3 3 3 3 3 3 3 3
3 3 4 4 5 6 6 6 7 6 5 4 3 3 2 2 1 2 2 1 0 1 1 0 1 0 1 1 1 2 2 2 2 2 2 1 1 1
3 3 3 3 4 4 6 7 5 6 6 5 5 3 3 3 3 2 2 2 2 2 2 0 0 1 1 1 2 3 3 3 2 2 2 1 0 0
3 3 4 3 4 5 5 5 3 3 2 3 4 3 3 3 3 3 3 2 1 0 2 1 1 1 1 1 3 3 4 4 3 3 3 2 1 1
3 3 4 4 5 7 6 5 4 3 3 4 3 3 2 3 3 3 2 2 0 1 1 1 1 0 1 2 2 3 4 4 4 4 4 4 3 2
3 3 5 5 6 6 6 5 4 1 2 4 4 3 2 1 3 3 3 3 1 1 1 1 1 1 0 2 1 1 2 3 4 4 5 5 4 1
3 2 1 5 6 6 5 4 4 3 2 3 3 2 2 2 1 1 2 3 2 2 2 2 1 1 1 1 2 1 2 2 1 3 4 6 5 3
4 2 2 5 5 5 4 4 5 5 3 3 2 1 1 1 1 1 0 0 1 2 2 2 2 2 2 1 2 2 2 2 2 2 2 4 5 6
4 5 5 5 5 3 4 5 5 3 3 2 1 0 1 1 0 1 2 1 2 1 1 1 2 2 2 2 2 2 2 2 3 3 3 3 3 3
4 5 6 5 4 3 2 2 2 2 3 2 1 0 0 0 0 0 0 1 1 3 3 1 1 2 2 2 2 2 2 2 2 3 3 3 3 3
5 3 3 2 2 2 1 1 1 1 1 1 1 1 0 0 0 0 0 1 0 1 2 2 1 0 2 2 1 2 2 2 2 2 1 2 3 4
6 4 3 3 3 2 2 1 1 1 1 1 1 1 1 1 0 0 0 1 0 1 2 2 1 2 3 2 2 2 2 2 2 2 1 2 4 4
4 4 3 3 3 3 2 2 2 2 1 1 1 1 1 1 0 0 0 0 1 1 2 1 0 1 0 3 5 3 3 3 2 2 2 3 4 5
3 4 4 3 3 3 3 2 2 1 1 1 1 1 1 1 1 1 1 1 1 1 2 1 1 2 4 4 3 4 4 4 2 3 3 2 3 5
4 4 3 3 3 3 3 3 3 2 2 2 2 2 1 1 1 1 1 2 1 1 2 3 4 4 2 1 1 4 4 5 5 4 3 2 3 3
4 4 3 3 3 3 3 3 2 2 2 2 2 2 2 2 2 2 2 2 2 2 3 3 3 1 1 1 3 4 5 4 4 5 6 6 4 4
5 4 4 4 3 3 3 3 4 2 2 2 2 2 2 2 2 2 2 2 2 2 2 2 2 1 1 2 3 3 4 4 3 3 4 7 9 11
Wind_Direction
98 103 111 122 142 158 155 155 151 145 116 85 58 28 51 56 66 64 80 93 96 97 95 89 86 84 82 81 80 78 76 76 75 71 68 66 63 59
93 82 62 58 81 92 124 125 134 140 137 131 111 107 87 84 73 59 69 86 88 91 92 90 88 84 81 80 80 79 79 79 77 74 71 71 69 67
76 86 69 68 81 79 88 95 100 115 123 110 88 88 79 83 68 59 63 57 71 86 94 92 90 88 85 83 81 80 79 78 78 78 78 75 73 71
100 95 83 88 82 86 94 101 107 115 132 134 119 97 86 104 90 88 80 73 67 87 92 94 94 93 89 85 82 80 79 78 78 79 79 78 77 73
118 114 107 101 90 93 95 97 100 103 111 130 130 110 93 102 87 78 77 53 80 95 90 91 97 95 91 89 88 86 86 83 78 75 74 73 71 70
104 106 106 109 113 113 108 106 108 106 109 119 124 115 104 100 94 94 67 23 60 85 76 82 95 93 94 98 100 99 95 91 90 88 84 77 69 64
89 90 97 104 107 110 119 126 122 118 119 120 127 123 126 131 160 171 129 85 17 64 72 57 70 50 37 105 123 122 115 113 108 104 97 89 82 75
105 94 96 88 94 93 100 116 128 135 141 138 141 151 165 168 158 155 143 129 243 273 117 359 107 112 280 263 180 162 159 147 142 141 132 111 91 85
119 110 103 91 88 88 88 94 98 112 135 149 152 170 176 185 164 159 168 168 192 198 131 209 245 230 257 243 206 196 195 193 190 189 189 191 196 264
110 117 113 98 98 110 103 90 78 77 98 137 159 180 185 186 181 175 174 148 64 22 127 163 230 231 261 261 244 222 220 223 224 221 214 214 219 236
91 100 113 106 103 109 108 102 81 49 56 86 113 129 144 154 151 122 115 113 91 279 193 147 206 225 287 273 263 243 231 235 243 242 236 230 233 255
89 85 99 111 113 112 117 119 111 99 68 67 64 59 78 101 124 146 157 148 155 246 232 150 169 128 287 284 271 272 255 251 246 249 250 252 246 250
131 118 104 116 115 114 118 126 142 135 103 88 74 54 43 42 42 88 159 161 162 221 217 152 157 156 175 262 291 262 240 251 254 262 254 255 253 228
149 150 142 130 119 111 106 116 117 110 101 88 78 58 46 18 346 5 55 171 182 203 212 163 166 179 164 210 278 282 262 249 228 244 250 261 259 248
144 147 143 136 120 103 104 115 113 109 113 110 122 195 248 248 16 25 16 26 18 342 301 190 167 167 161 189 222 239 262 264 229 229 243 243 246 244
119 122 119 113 101 94 92 100 110 133 139 147 168 208 2 44 32 138 60 14 11 332 333 324 182 162 179 205 197 230 226 241 253 240 240 255 259 242
127 102 98 106 99 84 78 75 85 96 109 127 136 132 102 74 288 317 105 90 110 295 315 324 332 235 193 179 204 244 248 264 260 250 241 275 275 261
128 131 143 147 153 157 157 162 161 173 182 166 167 181 192 195 242 340 74 121 215 264 274 290 345 12 5 324 219 214 241 253 265 259 223 253 281 279
133 150 159 167 172 176 178 177 192 211 191 169 180 198 185 177 181 273 278 310 271 267 266 270 241 146 255 293 294 234 208 243 252 260 248 232 252 268
160 166 174 177 180 184 188 187 189 191 182 182 189 195 183 171 204 246 241 229 251 270 292 293 244 209 209 229 257 279 240 217 225 246 260 266 270 282
180 180 181 179 182 184 186 188 186 190 192 184 195 205 201 185 214 237 237 243 237 254 268 269 260 252 222 93 325 297 284 247 220 220 230 252 281 296
183 184 185 185 185 182 180 179 178 182 187 193 211 220 217 203 214 229 229 229 237 241 253 268 290 334 121 206 256 273 289 301 285 259 240 217 210 235
185 186 187 189 189 181 175 174 175 184 195 205 213 220 219 219 222 218 223 227 239 255 266 286 304 295 250 240 255 271 282 290 301 312 295 274 253 253